Temperature
13 13 13 13 13 13 13 13 13 13 13 13 13 13 13 13 13 13 13 13 13 13 13 13 13 13 12 12 12 12 12 12 12 12 12 12 12 12 12 12 12 11 11
13 13 13 13 13 13 13 13 13 13 13 12 12 12 12 12 12 12 13 12 12 12 12 12 12 12 12 12 12 12 12 12 12 12 12 12 12 12 11 11 11 11 11
12 13 13 13 12 12 12 12 12 12 12 12 12 12 12 12 12 12 12 12 12 12 12 12 12 12 12 12 12 12 12 12 12 12 12 12 11 11 11 11 11 11 11
12 12 12 12 12 12 12 12 12 12 12 12 12 12 12 12 12 12 12 12 12 12 12 12 12 12 12 12 12 12 12 12 12 12 11 11 11 11 11 11 11 11 11
12 12 12 12 12 12 12 12 12 12 12 12 12 12 12 12 12 12 12 12 12 12 12 11 11 11 11 11 11 11 11 11 11 11 11 11 11 11 11 11 11 11 11
11 11 11 11 11 11 11 11 11 11 11 11 11 11 11 11 11 11 11 11 11 11 11 11 11 11 11 11 11 11 11 11 11 11 11 11 11 11 11 10 10 10 10
11 11 11 11 11 11 11 11 11 11 11 11 11 11 11 11 11 11 11 11 11 11 11 11 11 11 11 11 11 10 10 10 10 10 10 10 10 10 10 10 10 10 10
11 11 11 11 11 11 11 11 11 11 11 10 10 10 10 10 10 10 10 11 11 10 10 11 10 10 10 10 10 10 10 10 10 10 10 10 10 10 10 10 10 10 9
10 10 10 10 10 10 10 10 10 10 10 10 10 10 10 10 10 10 10 10 10 10 10 10 10 10 10 10 10 10 10 10 9 9 10 10 9 9 9 9 9 9 9
10 10 10 10 10 10 10 10 10 10 10 10 10 10 10 10 10 9 9 10 10 10 10 10 10 9 9 9 9 9 9 9 9 9 9 9 9 9 9 9 9 9 9
9 9 10 10 10 10 10 10 10 10 10 10 10 10 9 9 9 9 9 9 9 9 9 9 9 9 9 9 9 9 9 9 9 9 9 9 8 9 9 9 9 8 8
9 9 9 9 9 10 10 10 9 9 9 9 9 9 9 9 9 9 9 9 9 9 9 9 9 9 9 9 9 9 8 8 8 8 8 8 8 8 8 8 8 8 8
9 9 9 9 9 9 9 9 9 9 9 9 9 9 9 9 9 9 9 8 8 8 9 9 9 9 8 8 8 8 8 8 8 8 8 8 8 8 8 8 8 8 8
9 9 9 9 9 9 9 9 9 9 8 8 8 8 8 8 8 8 8 8 8 8 8 8 8 8 8 8 8 8 8 8 8 8 8 7 8 7 7 7 7 7 7
8 8 8 8 8 8 8 8 8 8 8 8 8 8 8 8 8 8 8 8 8 7 7 8 8 8 8 7 7 7 7 7 7 7 7 7 7 7 7 7 7 7 7
8 8 8 8 8 8 8 8 7 7 7 7 7 7 7 7 7 7 7 7 7 7 7 7 7 7 7 7 7 7 7 7 7 7 7 7 7 7 7 6 6 6 6
7 7 7 7 7 7 7 7 7 7 7 7 7 7 7 7 7 7 7 7 7 7 7 7 7 7 7 6 6 6 6 6 6 6 6 6 6 6 6 6 6 6 6
7 7 7 7 7 7 7 7 7 7 7 6 6 6 6 6 6 6 7 7 7 6 6 6 6 6 6 6 6 6 6 6 5 5 5 6 6 6 6 6 5 5 5
6 6 6 6 6 6 6 6 6 6 6 6 6 6 6 6 6 6 6 6 6 6 6 6 6 6 6 5 5 5 5 5 5 5 5 5 5 5 5 5 5 5 5
6 6 6 6 6 6 6 6 6 6 6 6 6 5 5 5 6 6 6 6 5 5 5 5 5 5 5 5 5 5 5 5 4 4 4 4 4 4 4 4 4 4 4
5 5 5 5 5 5 5 5 5 5 5 5 5 5 5 5 5 5 5 5 5 5 5 5 5 4 4 4 4 4 4 4 4 4 4 4 4 4 4 4 4 4 4
4 4 4 4 4 5 5 5 5 5 5 5 5 5 5 5 5 5 4 4 4 4 4 4 4 4 4 4 4 3 3 3 3 3 3 3 3 3 3 3 3 3 3
4 4 4 4 4 4 4 4 4 4 4 4 4 4 4 4 4 4 4 4 4 4 4 3 3 3 3 3 3 3 3 2 2 2 2 3 3 3 3 3 3 2 2
3 3 3 3 3 4 4 4 4 4 4 4 4 4 4 4 4 4 4 3 3 3 3 3 3 2 2 2 2 2 2 2 2 2 2 2 2 2 2 2 2 2 2
2 2 2 3 3 3 3 3 3 3 3 3 3 3 3 3 3 3 3 3 3 3 2 2 2 2 2 2 2 1 1 1 1 1 1 1 1 1 2 2 2 1 1
1 1 1 2 2 2 2 2 2 2 2 2 2 2 2 2 2 2 2 2 2 2 2 2 2 1 1 1 1 1 1 1 1 0 0 0 0 0 0 1 1 1 1
Wind_Speed
5 6 6 6 6 7 7 6 6 7 7 7 6 6 5 4 4 4 4 5 4 4 4 5 5 5 5 5 5 5 5 5 5 6 5 6 6 6 7 7 7 7 7
7 6 5 5 5 6 7 7 6 6 5 5 5 5 4 4 4 3 3 3 4 3 3 4 4 4 4 5 5 5 4 4 5 4 4 4 5 5 5 5 5 5 5
8 7 5 5 5 7 8 7 6 6 5 4 3 4 3 3 3 3 2 2 2 2 3 3 3 4 4 4 4 4 5 5 4 4 4 5 4 4 4 4 4 4 4
8 7 5 4 6 7 7 5 4 3 3 3 2 2 3 3 3 2 2 2 2 1 2 3 3 3 4 4 4 4 5 4 4 4 4 3 3 3 2 2 3 3 3
8 8 6 6 7 6 5 4 3 3 3 3 2 2 2 2 2 3 3 2 2 2 2 2 3 3 3 3 3 3 3 3 3 3 3 3 3 3 2 2 2 2 2
8 7 6 6 7 5 3 3 4 3 3 3 3 3 2 2 3 3 2 2 2 2 3 3 2 2 2 2 2 2 2 2 2 2 2 2 2 3 3 3 3 3 3
7 7 5 5 6 4 4 5 4 4 3 2 3 2 2 2 3 3 3 3 3 3 4 3 3 2 2 2 2 2 2 2 2 2 2 2 2 2 2 3 3 3 2
6 6 6 4 5 4 5 5 4 3 2 2 2 2 1 2 2 2 2 2 2 3 4 3 3 2 2 2 2 2 2 2 2 2 2 2 1 1 2 3 3 3 3
6 6 6 6 5 5 5 5 5 5 3 1 1 3 3 2 0 2 3 2 2 2 2 3 3 2 2 1 2 2 2 2 2 2 2 2 1 2 2 3 3 3 3
5 6 6 6 5 4 5 5 4 3 5 3 1 2 2 3 2 0 2 2 2 2 2 2 2 1 1 1 1 2 2 2 2 3 3 3 2 2 3 3 3 3 4
4 5 6 5 5 4 4 5 4 4 4 4 3 2 2 2 2 2 1 2 2 2 1 1 1 1 1 1 1 1 1 1 2 3 3 3 3 3 3 3 3 4 4
2 3 5 5 5 4 5 5 5 5 4 4 3 3 3 3 2 2 2 1 1 1 1 2 1 1 1 1 1 1 1 1 2 2 3 4 4 3 3 3 3 3 4
2 4 3 4 4 4 5 5 4 4 5 5 4 3 3 2 3 3 3 2 1 1 1 1 2 2 2 2 2 2 2 1 2 2 3 3 4 4 4 3 3 3 4
4 4 4 4 4 5 5 5 4 4 4 4 4 4 3 2 3 3 3 3 1 1 1 2 1 2 2 2 2 2 3 2 2 2 3 3 4 4 4 4 4 4 4
3 4 4 4 4 4 4 4 3 4 4 4 4 4 3 2 2 2 3 3 4 2 2 2 1 2 2 2 2 2 3 2 3 3 3 4 4 4 4 4 5 5 4
3 4 4 4 4 4 4 4 3 3 4 4 3 4 3 3 2 2 2 2 2 3 2 2 2 1 1 1 2 3 3 3 3 3 3 3 4 4 4 4 5 5 5
4 4 4 5 5 4 4 4 4 4 5 4 4 4 4 4 3 3 2 2 2 2 3 1 0 0 1 1 2 3 3 3 3 3 3 4 4 4 4 4 5 6 6
3 4 4 5 5 5 5 5 5 5 5 5 5 4 4 3 4 3 3 3 3 2 3 3 1 0 0 0 1 2 2 2 3 3 4 4 4 5 5 5 6 6 6
3 3 4 4 5 5 5 5 5 5 5 5 5 5 4 4 4 3 3 3 3 2 2 3 1 1 0 0 0 1 2 2 3 4 4 4 5 6 6 6 6 6 6
3 3 4 4 4 4 4 4 5 4 4 3 3 4 4 5 5 5 4 4 3 3 2 2 1 1 0 0 1 0 1 2 2 4 4 5 5 6 6 6 7 7 7
3 3 3 3 3 4 4 5 5 5 5 3 3 3 3 4 4 4 3 4 4 3 3 2 2 1 1 1 1 1 1 2 2 2 2 4 5 5 6 6 7 7 7
2 3 4 4 4 3 5 7 6 5 5 5 4 3 3 3 4 4 5 5 5 4 4 3 2 2 2 2 1 1 1 1 2 2 1 3 3 3 6 6 7 8 7
2 3 3 4 4 4 6 7 7 5 5 4 4 4 3 3 4 4 4 4 3 3 4 4 4 3 3 3 2 1 1 2 2 2 1 3 2 3 6 7 8 8 8
3 3 3 4 4 4 6 7 7 5 4 4 4 4 5 4 4 5 5 4 2 1 2 2 3 3 2 3 3 2 2 1 1 1 1 2 3 3 6 8 8 8 9
2 3 3 4 4 3 5 6 6 5 4 4 3 4 5 4 6 7 6 5 3 1 2 3 3 3 2 2 3 2 1 0 2 2 1 1 2 3 4 4 7 9 10
3 3 3 3 4 4 5 5 6 4 5 4 3 3 5 5 6 7 5 5 4 2 2 2 2 2 2 2 2 2 2 2 1 2 1 1 1 2 3 3 5 7 8
Wind_Direction
135 128 126 126 127 128 123 115 114 110 105 104 108 110 104 106 114 113 117 118 126 125 121 118 114 107 99 101 101 98 89 82 82 76 75 73 75 77 76 71 70 68 64
143 138 132 129 130 134 131 125 122 117 107 103 97 101 104 110 113 115 118 121 120 116 116 118 110 101 98 98 95 91 90 86 82 76 70 72 75 73 72 70 67 61 61
150 144 139 139 139 139 129 120 112 108 104 98 92 87 91 101 114 115 122 132 128 112 107 111 109 100 93 92 91 89 87 85 81 77 73 69 70 68 67 65 60 56 59
153 147 144 146 143 136 129 123 118 109 106 104 96 81 78 85 88 96 108 119 123 118 100 96 97 96 86 80 81 85 86 80 75 71 71 67 62 57 56 56 54 57 59
157 150 150 147 143 133 128 130 120 118 119 113 101 75 64 60 65 80 84 94 102 102 104 99 92 86 78 71 66 73 78 74 73 66 60 52 43 37 38 49 49 52 66
158 151 148 148 141 132 130 126 120 107 115 116 96 70 51 46 53 59 64 75 86 89 94 95 91 84 73 64 44 48 55 56 64 64 52 41 37 45 45 48 43 42 57
155 151 148 150 148 145 148 141 124 117 104 105 98 67 33 43 54 48 50 61 65 73 78 80 82 80 63 49 31 30 21 14 37 43 41 29 25 33 44 37 30 27 28
155 156 152 156 155 145 142 144 134 127 117 120 126 120 73 11 18 33 45 58 53 67 66 61 64 68 54 38 21 24 5 1 355 352 356 347 352 22 30 25 21 23 21
162 160 163 155 154 154 161 162 155 147 152 139 103 136 151 199 301 11 30 34 32 52 55 57 61 57 52 44 26 19 11 350 349 350 347 345 354 3 18 18 14 12 2
160 162 161 161 159 157 164 168 162 155 151 160 122 77 103 133 142 34 356 14 27 31 33 49 50 48 52 64 46 23 20 14 6 3 2 359 357 3 8 8 4 2 352
158 163 159 157 159 159 162 161 160 158 159 161 157 140 113 82 102 152 226 322 359 359 17 35 38 27 30 40 48 20 16 13 4 5 6 1 4 0 356 4 7 6 1
157 164 161 157 160 160 164 168 167 167 170 161 155 151 149 152 168 162 189 219 265 313 348 26 25 9 8 15 5 10 8 8 351 356 4 2 0 356 350 353 7 3 3
182 187 161 163 164 168 169 165 165 174 174 169 172 176 174 169 155 153 156 177 214 289 339 1 4 2 358 17 11 4 357 347 353 355 354 358 358 358 353 347 346 346 346
187 177 168 165 165 167 167 163 167 177 169 177 178 177 175 175 164 161 160 158 174 270 304 288 353 3 1 22 14 21 10 4 5 356 349 348 356 356 354 345 329 326 327
164 159 163 162 161 164 164 160 174 182 176 180 182 181 182 180 172 173 163 166 169 203 243 239 269 343 353 19 30 48 37 27 20 9 358 352 346 344 342 334 331 319 318
158 160 165 163 162 164 165 165 172 182 179 185 180 177 185 182 179 174 173 173 175 186 215 213 215 290 355 1 15 44 44 39 27 15 351 335 326 323 327 330 329 320 311
166 170 173 173 175 173 170 176 184 176 183 189 183 185 196 182 181 183 172 166 172 170 206 231 212 355 38 28 16 32 26 26 9 355 336 325 316 314 318 320 317 313 308
179 178 172 178 180 178 177 181 187 184 187 192 194 191 201 187 189 187 180 183 184 178 185 210 218 235 283 295 61 55 18 10 354 341 334 329 325 323 320 315 310 309 304
185 178 174 184 185 182 179 185 187 186 190 194 192 192 196 186 196 192 185 182 177 166 167 178 200 222 252 228 20 35 33 3 338 333 338 335 334 329 323 315 307 305 303
185 188 186 191 192 184 182 181 179 178 178 181 183 187 189 190 197 193 186 179 164 152 146 153 172 197 229 209 131 253 335 337 336 339 336 332 331 333 328 319 311 306 304
192 187 181 185 185 182 184 175 172 169 164 159 158 164 171 174 179 178 174 169 162 157 153 158 173 185 196 198 218 221 268 311 321 340 338 333 330 330 327 322 314 308 308
184 171 177 178 184 192 180 179 171 164 161 160 158 155 148 149 150 150 151 152 158 165 170 174 190 193 216 224 218 210 225 292 296 330 340 313 320 308 310 310 309 308 306
172 170 172 170 175 175 173 175 173 159 155 160 161 155 148 136 128 126 123 124 125 147 169 177 183 204 210 215 202 217 232 242 259 291 320 294 308 293 297 302 305 304 304
154 156 157 154 150 158 162 162 163 147 142 148 157 160 157 154 147 138 127 115 110 107 154 162 172 188 194 189 195 205 214 240 278 310 288 278 300 294 302 300 300 305 309
142 140 141 141 141 143 149 148 149 138 138 142 145 147 151 152 155 147 138 134 122 106 114 148 160 158 159 170 168 134 154 235 287 293 295 256 292 302 298 291 296 305 306
144 131 123 130 139 139 144 145 144 141 143 139 130 141 160 165 163 160 156 155 162 173 142 112 102 100 107 119 152 164 196 218 257 270 251 238 290 322 310 295 305 314 313
Height
1545 1547 1549 1552 1554 1556 1558 1560 1562 1564 1566 1568 1569 1571 1572 1574 1575 1576 1576 1577 1578 1579 1579 1579 1579 1580 1580 1580 1580 1580 1580 1579 1579 1579 1579 1579 1579 1578 1578 1578 1577 1577 1576
1544 1546 1548 1551 1553 1555 1557 1560 1562 1563 1565 1567 1569 1570 1572 1573 1575 1576 1576 1577 1578 1579 1579 1580 1580 1580 1580 1580 1580 1580 1580 1580 1580 1579 1579 1579 1579 1578 1578 1578 1578 1577 1577
1543 1545 1547 1550 1552 1554 1556 1558 1561 1563 1564 1566 1568 1570 1571 1573 1574 1575 1576 1577 1578 1579 1579 1580 1580 1580 1580 1580 1580 1580 1580 1580 1580 1579 1579 1579 1578 1578 1578 1578 1577 1577 1577
1541 1544 1546 1548 1550 1552 1555 1557 1559 1561 1563 1565 1567 1569 1570 1572 1573 1574 1575 1576 1577 1578 1579 1579 1580 1580 1580 1580 1580 1580 1580 1579 1579 1579 1579 1578 1578 1578 1578 1577 1577 1577 1576
1540 1542 1545 1547 1549 1551 1553 1555 1557 1560 1562 1564 1566 1568 1569 1571 1572 1573 1575 1576 1576 1577 1578 1579 1579 1579 1579 1579 1579 1579 1579 1579 1579 1579 1578 1578 1578 1577 1577 1577 1576 1576 1576
1538 1540 1543 1545 1547 1549 1551 1554 1556 1558 1561 1563 1565 1566 1568 1570 1571 1572 1573 1574 1575 1576 1577 1578 1578 1578 1578 1578 1578 1578 1578 1578 1578 1578 1578 1577 1577 1577 1576 1576 1576 1575 1575
1536 1538 1541 1543 1545 1548 1550 1552 1554 1557 1559 1561 1563 1565 1567 1568 1569 1570 1572 1573 1574 1574 1575 1576 1577 1577 1577 1577 1577 1577 1577 1577 1577 1577 1576 1576 1576 1576 1575 1575 1574 1574 1574
1534 1536 1539 1541 1543 1545 1548 1550 1552 1554 1557 1559 1561 1563 1565 1567 1567 1568 1570 1571 1572 1573 1573 1574 1575 1575 1575 1575 1576 1576 1576 1576 1575 1575 1575 1575 1575 1574 1574 1573 1573 1573 1572
1532 1534 1537 1539 1541 1543 1545 1548 1550 1552 1554 1557 1559 1561 1562 1563 1565 1566 1567 1568 1569 1570 1571 1572 1573 1573 1573 1574 1574 1574 1574 1574 1574 1574 1573 1573 1573 1572 1572 1572 1571 1571 1570
1529 1532 1534 1536 1538 1541 1543 1545 1548 1550 1552 1554 1556 1558 1560 1561 1563 1564 1565 1566 1567 1568 1569 1570 1571 1571 1571 1572 1572 1572 1572 1572 1572 1572 1571 1571 1571 1570 1570 1570 1569 1569 1568
1527 1529 1532 1533 1535 1538 1540 1543 1545 1547 1549 1551 1553 1555 1557 1559 1560 1561 1562 1564 1565 1566 1567 1567 1568 1569 1569 1569 1569 1569 1570 1569 1569 1569 1569 1569 1569 1568 1568 1568 1567 1567 1566
1524 1526 1529 1531 1533 1535 1537 1540 1542 1544 1546 1548 1550 1552 1554 1555 1557 1559 1560 1561 1562 1563 1564 1565 1565 1566 1566 1567 1567 1567 1567 1567 1567 1567 1567 1566 1566 1566 1566 1565 1565 1564 1564
1520 1523 1525 1528 1530 1532 1534 1537 1539 1541 1543 1545 1547 1549 1551 1553 1554 1556 1557 1558 1559 1560 1561 1562 1562 1563 1563 1564 1564 1564 1564 1564 1564 1564 1564 1564 1564 1563 1563 1563 1562 1562 1561
1517 1520 1522 1524 1526 1528 1531 1533 1535 1537 1539 1541 1543 1545 1547 1549 1551 1553 1554 1555 1556 1557 1557 1558 1559 1560 1560 1561 1561 1561 1561 1561 1561 1561 1561 1561 1561 1561 1560 1560 1559 1559 1558
1514 1517 1519 1521 1523 1525 1527 1529 1531 1533 1536 1537 1540 1542 1544 1546 1547 1549 1551 1552 1554 1553 1554 1555 1556 1557 1557 1558 1558 1558 1558 1558 1558 1558 1558 1558 1558 1558 1557 1557 1556 1556 1555
1511 1513 1515 1517 1519 1521 1523 1525 1527 1530 1532 1533 1536 1538 1540 1542 1544 1545 1547 1548 1550 1550 1550 1551 1552 1553 1554 1554 1555 1555 1555 1555 1555 1555 1555 1555 1555 1554 1554 1553 1553 1552 1551
1507 1509 1511 1513 1515 1517 1519 1521 1523 1526 1528 1530 1532 1533 1535 1538 1539 1541 1542 1544 1545 1547 1547 1547 1549 1550 1550 1551 1551 1551 1551 1551 1551 1551 1551 1551 1551 1550 1550 1550 1549 1548 1547
1502 1505 1507 1509 1511 1513 1515 1517 1519 1521 1523 1525 1527 1529 1531 1533 1535 1537 1538 1540 1541 1543 1543 1543 1544 1546 1546 1547 1547 1548 1548 1548 1548 1548 1548 1548 1547 1547 1546 1546 1545 1544 1543
1498 1501 1503 1505 1507 1509 1511 1513 1515 1517 1519 1521 1523 1525 1527 1529 1531 1532 1534 1536 1537 1538 1539 1540 1540 1542 1542 1543 1543 1544 1544 1544 1544 1544 1544 1544 1543 1543 1542 1542 1541 1540 1539
1494 1497 1499 1501 1503 1505 1507 1509 1511 1513 1515 1517 1519 1521 1523 1525 1526 1528 1530 1531 1533 1534 1535 1536 1536 1537 1538 1539 1540 1540 1540 1540 1540 1540 1540 1540 1540 1539 1538 1538 1537 1536 1535
1490 1492 1494 1497 1499 1501 1503 1505 1507 1509 1511 1513 1515 1517 1519 1521 1522 1524 1526 1527 1529 1530 1531 1531 1532 1533 1534 1535 1536 1536 1536 1536 1536 1537 1536 1536 1536 1535 1534 1533 1532 1531 1530
1485 1488 1490 1492 1495 1497 1499 1502 1503 1505 1507 1509 1511 1513 1515 1517 1519 1520 1522 1523 1525 1526 1527 1528 1528 1529 1530 1531 1532 1532 1533 1533 1532 1533 1533 1532 1532 1531 1530 1529 1528 1527 1526
1481 1483 1486 1488 1491 1493 1496 1498 1500 1502 1504 1506 1508 1509 1511 1513 1515 1516 1518 1519 1520 1522 1523 1525 1525 1525 1526 1527 1528 1529 1529 1529 1529 1529 1529 1527 1528 1527 1526 1525 1524 1523 1521
1477 1480 1482 1485 1487 1489 1492 1494 1496 1498 1500 1502 1504 1506 1507 1509 1511 1512 1514 1515 1516 1518 1519 1521 1522 1522 1524 1524 1525 1526 1525 1525 1525 1525 1525 1523 1523 1522 1521 1520 1519 1518 1516
1474 1476 1479 1481 1483 1485 1488 1490 1492 1494 1496 1498 1500 1502 1504 1505 1507 1509 1510 1511 1513 1514 1516 1517 1518 1519 1520 1521 1522 1522 1522 1521 1520 1520 1521 1520 1518 1517 1516 1515 1514 1513 1511
1471 1473 1475 1478 1480 1482 1484 1486 1489 1490 1492 1494 1496 1498 1500 1502 1504 1505 1507 1508 1510 1511 1513 1514 1515 1516 1517 1517 1518 1518 1518 1518 1517 1516 1516 1516 1514 1513 1510 1509 1509 1508 1506